DW4174 Weather Reports


time (UTC)temp
C
wind
direction
speed
KPH
gust
KPH
rain 1hr
cm
rain 24hr
cm
rain mn
cm
humidity
%
barometer
mb
20260506033608 21 264 8.0 16.1 0.00 0.00 0.00 28 1010.1
20260506031807 22 258 9.7 17.7 0.00 0.00 0.00 27 1009.8
20260506030907 22 261 9.7 17.7 0.00 0.00 0.00 27 1009.7
20260506030007 22 263 11.3 17.7 0.00 0.00 0.00 26 1009.5
20260506025107 22 265 11.3 17.7 0.00 0.00 0.00 26 1009.4
20260506024208 22 266 12.9 19.3 0.00 0.00 0.00 26 1009.3
20260506023307 22 264 11.3 19.3 0.00 0.00 0.00 26 1009.2
20260506022408 22 263 11.3 19.3 0.00 0.00 0.00 26 1009.0
20260506021508 22 263 12.9 19.3 0.00 0.00 0.00 26 1008.8
20260506020607 23 259 12.9 25.7 0.00 0.00 0.00 26 1008.7
20260506015707 23 258 12.9 22.5 0.00 0.00 0.00 26 1008.7
20260506013907 23 269 14.5 25.7 0.00 0.00 0.00 25 1008.5
20260506012107 24 275 14.5 24.1 0.00 0.00 0.00 25 1008.4
20260506004507 25 280 16.1 27.4 0.00 0.00 0.00 24 1008.1
20260506003607 25 273 14.5 27.4 0.00 0.00 0.00 23 1008.2
20260506002707 25 281 9.7 24.1 0.00 0.00 0.00 25 1008.0
20260506001807 25 245 9.7 19.3 0.00 0.00 0.00 25 1008.0
20260506000907 25 246 14.5 29.0 0.00 0.00 0.00 25 1007.9
20260506000007 26 268 14.5 29.0 0.00 0.00 0.00 24 1007.9
20260505234207 26 270 17.7 33.8 0.00 0.00 0.00 24 1007.8
20260505233307 26 272 14.5 25.7 0.00 0.00 0.00 23 1007.8
20260505232407 25 290 14.5 25.7 0.00 0.00 0.00 26 1007.9
20260505231507 25 273 14.5 25.7 0.00 0.00 0.00 25 1007.9
20260505230607 26 255 9.7 25.7 0.00 0.00 0.00 25 1008.0
20260505224807 26 273 12.9 25.7 0.00 0.00 0.00 25 1007.9
20260505223907 27 250 12.9 24.1 0.00 0.00 0.00 24 1008.2
20260505222107 26 273 14.5 25.7 0.00 0.00 0.00 26 1008.3
20260505220306 27 269 16.1 32.2 0.00 0.00 0.00 24 1008.5
20260505215406 27 268 11.3 27.4 0.00 0.00 0.00 24 1008.4
20260505214508 26 264 14.5 25.7 0.00 0.00 0.00 26 1008.5
20260505213607 26 270 11.3 25.7 0.00 0.00 0.00 25 1008.5
20260505212706 27 236 9.7 20.9 0.00 0.00 0.00 25 1008.6
20260505211806 27 240 11.3 29.0 0.00 0.00 0.00 24 1008.8
20260505210907 26 246 11.3 24.1 0.00 0.00 0.00 27 1008.8
20260505210007 26 179 8.0 25.7 0.00 0.00 0.00 25 1008.9
20260505205107 27 222 11.3 24.1 0.00 0.00 0.00 25 1009.0
20260505204208 27 258 12.9 40.2 0.00 0.00 0.00 26 1009.0
20260505203307 26 252 9.7 24.1 0.00 0.00 0.00 28 1009.1
20260505202406 27 243 9.7 22.5 0.00 0.00 0.00 28 1009.1
20260505201507 25 221 6.4 24.1 0.00 0.00 0.00 32 1009.3
20260505200606 25 193 9.7 17.7 0.00 0.00 0.00 33 1009.3
20260505193907 25 274 11.3 22.5 0.00 0.00 0.00 35 1009.4
20260505193007 26 221 8.0 19.3 0.00 0.00 0.00 34 1009.5
20260505192107 24 191 9.7 17.7 0.00 0.00 0.00 36 1009.5
20260505191206 24 239 8.0 25.7 0.00 0.00 0.00 36 1009.7
20260505190306 25 198 8.0 19.3 0.00 0.00 0.00 35 1009.8
20260505183606 24 214 8.0 20.9 0.00 0.00 0.00 37 1010.0
20260505182707 24 210 8.0 20.9 0.00 0.00 0.00 37 1010.1
20260505181806 24 199 9.7 20.9 0.00 0.00 0.00 38 1010.2
20260505180906 23 193 8.0 17.7 0.00 0.00 0.00 38 1010.1
20260505180006 23 195 6.4 17.7 0.00 0.00 0.00 40 1010.2
20260505175106 22 223 8.0 16.1 0.00 0.00 0.00 45 1010.2
20260505174206 22 258 9.7 20.9 0.00 0.00 0.00 47 1010.2
20260505173306 23 293 4.8 14.5 0.00 0.00 0.00 45 1010.2
20260505172406 22 265 8.0 14.5 0.00 0.00 0.00 48 1010.2
20260505171507 23 276 11.3 17.7 0.00 0.00 0.00 48 1010.3
20260505165706 22 303 8.0 17.7 0.00 0.00 0.00 49 1010.2
20260505164806 22 233 6.4 19.3 0.00 0.00 0.00 47 1010.2
20260505163906 23 228 6.4 16.1 0.00 0.00 0.00 47 1010.2
20260505163008 23 257 6.4 17.7 0.00 0.00 0.00 47 1010.3
20260505162106 21 232 3.2 12.9 0.00 0.00 0.00 52 1010.4
20260505161206 20 193 4.8 16.1 0.00 0.00 0.00 53 1010.4
20260505160307 20 200 4.8 16.1 0.00 0.00 0.00 53 1010.4
20260505152706 20 227 4.8 11.3 0.00 0.00 0.00 55 1010.1
20260505151807 20 213 4.8 11.3 0.00 0.00 0.00 56 1010.2
20260505150907 20 184 4.8 11.3 0.00 0.00 0.00 57 1010.0
20260505140606 18 189 4.8 14.5 0.00 0.00 0.00 61 1010.0
20260505094506 19 145 4.8 14.5 0.00 0.00 0.00 56 1010.1
20260505093605 20 154 6.4 16.1 0.00 0.00 0.00 55 1010.0
20260505092706 20 153 9.7 17.7 0.00 0.00 0.00 56 1010.1
20260505090906 20 150 8.0 17.7 0.00 0.00 0.00 56 1010.2
20260505085106 20 159 9.7 19.3 0.00 0.00 0.00 54 1010.2
20260505082406 20 172 11.3 25.7 0.00 0.00 0.00 48 1010.6
20260505081505 21 160 11.3 19.3 0.00 0.00 0.00 47 1010.6
20260505075705 21 178 11.3 35.4 0.00 0.00 0.00 43 1010.8
20260505074805 21 171 9.7 35.4 0.00 0.00 0.00 43 1010.7
20260505073905 21 175 9.7 25.7 0.00 0.00 0.00 43 1010.5
20260505073006 21 171 8.0 16.1 0.00 0.00 0.00 43 1010.4
20260505072105 21 169 8.0 22.5 0.00 0.00 0.00 42 1010.5
20260505071205 21 178 9.7 17.7 0.00 0.00 0.00 41 1010.6
20260505070306 21 176 9.7 19.3 0.00 0.00 0.00 40 1010.6
20260505065406 21 170 8.0 25.7 0.00 0.00 0.00 38 1010.6
20260505064505 21 171 9.7 25.7 0.00 0.00 0.00 36 1010.5
20260505063606 22 174 11.3 22.5 0.00 0.00 0.00 36 1010.4
20260505062705 22 168 9.7 22.5 0.00 0.00 0.00 34 1010.2
20260505060905 22 160 9.7 20.9 0.00 0.00 0.00 31 1010.0
20260505060006 22 159 9.7 20.9 0.00 0.00 0.00 32 1009.9
20260505055105 22 169 8.0 19.3 0.00 0.00 0.00 32 1009.8
20260505054205 22 164 6.4 16.1 0.00 0.00 0.00 32 1010.0
20260505053305 22 162 6.4 16.1 0.00 0.00 0.00 32 1010.2
20260505052405 23 164 6.4 16.1 0.00 0.00 0.00 32 1010.3
20260505051505 23 166 8.0 16.1 0.00 0.00 0.00 32 1010.5
20260505050605 23 175 8.0 17.7 0.00 0.00 0.00 32 1010.4
20260505041205 23 278 6.4 9.7 0.00 0.00 0.00 43 1010.1
20260505035405 23 264 3.2 11.3 0.00 0.00 0.00 43 1010.2